Weather in Linz

Austria     48°18′23″N   14°16′58″E
temp.,
°C
wind,
m/s
gust,
m/s
humid.,
%
clouds,
%
prec.,
mm/h
press.,
hPa
HPBL,
m
26 july, mon
mon2623:00+16sw119418 1.6 101130
02:00+16wsw119513 1.9 101313
05:00+15nnw11958 0.0 101311
08:00+17ese009113 0.0 1013174
11:00+24sse00694 0.0 1013673
14:00+27ese23535 0.0 10111056
17:00+27wsw225511 0.0 1010949
20:00+23wnw35788 0.3 1010118
27 july, tue
tue2723:00+18w2595100 5.8 1014115
02:00+17wsw3695100 6.9 1015153
05:00+16wnw2396100 0.0 101664
08:00+18w238971 0.0 1016238
11:00+23wnw226967 0.0 1016767
14:00+26se22555 0.0 10141216
17:00+27ese12536 0.0 1012950
20:00+23nw227321 0.0 101220
28 july, wed
wed2823:00+19nw119191 1.8 101318
02:00+18w2497100 6.9 1014148
05:00+18w369690 1.1 1015203
08:00+19wnw249285 1.2 1015186
11:00+23w2266100 0.2 1014619
14:00+24wnw676194 0.3 10151329
17:00+21w6875100 0.6 1016885
20:00+16sw2794100 8.0 1018308
29 july, thu
thu2923:00+15nw11945 0.0 101710
02:00+13e00954 0.0 101710
05:00+12ene11976 0.0 101710
08:00+15ese119112 0.0 1017187
11:00+22sw11650 0.0 1016487
14:00+26sw11530 0.0 1015879
17:00+27s11500 0.0 1013984
20:00+22e11730 0.0 101211
30 july, fri
fri3023:00+19ne118080 0.0 101214
02:00+18s1193100 0.7 101322
05:00+18wnw2494100 0.0 1013124
08:00+19nw119286 0.1 1012139
11:00+24ene116550 0.0 1011647
14:00+28sw125684 0.0 1009837
17:00+27sw2264100 0.1 1008388
20:00+21ese338890 1.1 100859